• In Romania
  • List of Countries
  • For 7 days
  • Water Temperature
  • Satellite Maps
  • Weather Map
  • Weather Widgets
  • user-avatar
    Login

    Hourly Weather Zalaegerszeg

    Today, 21 August, Tuesday

    Time Temperature Precipitation Wind Pressure Humidity
    00:00 +25°C° 0.1 mm 1 mps 748 mmHg 51%
    01:00 +25°C° 0.1 mm 1 mps 749 mmHg 55%
    02:00 +24°C° 0.1 mm 2 mps 749 mmHg 58%
    03:00 +24°C° 0.1 mm 2 mps 749 mmHg 62%
    04:00 +23°C° 0.1 mm 2 mps 749 mmHg 66%
    05:00 +24°C° 0 mm 3 mps 749 mmHg 65%
    06:00 +24°C° 0 mm 3 mps 749 mmHg 63%
    07:00 +25°C° 0 mm 4 mps 749 mmHg 62%
    08:00 +27°C° 0 mm 4 mps 749 mmHg 56%
    09:00 +29°C° 0 mm 4 mps 749 mmHg 49%
    10:00 +32°C° 0 mm 5 mps 750 mmHg 43%
    11:00 +33°C° 0 mm 4 mps 749 mmHg 39%
    12:00 +34°C° 0 mm 4 mps 749 mmHg 35%
    13:00 +36°C° 0 mm 4 mps 749 mmHg 32%
    14:00 +35°C° 0 mm 3 mps 748 mmHg 32%
    15:00 +35°C° 0 mm 3 mps 748 mmHg 32%
    16:00 +35°C° 0 mm 3 mps 748 mmHg 32%
    17:00 +33°C° 0 mm 3 mps 748 mmHg 37%
    18:00 +30°C° 0 mm 3 mps 748 mmHg 42%
    19:00 +29°C° 0 mm 3 mps 748 mmHg 47%
    20:00 +28°C° 0 mm 3 mps 749 mmHg 50%
    21:00 +26°C° 0 mm 3 mps 749 mmHg 54%
    22:00 +25°C° 0 mm 3 mps 749 mmHg 57%
    23:00 +25°C° 0 mm 3 mps 749 mmHg 61%

    Tomorrow, 22 August, Wednesday

    Time Temperature Precipitation Wind Pressure Humidity
    00:00 +24°C° 0 mm 3 mps 749 mmHg 64%
    01:00 +23°C° 0 mm 2 mps 750 mmHg 67%
    02:00 +23°C° 0 mm 2 mps 750 mmHg 69%
    03:00 +21°C° 0 mm 2 mps 750 mmHg 71%
    04:00 +21°C° 0 mm 2 mps 750 mmHg 73%
    05:00 +21°C° 0 mm 2 mps 750 mmHg 70%
    06:00 +23°C° 0 mm 2 mps 750 mmHg 67%
    07:00 +24°C° 0 mm 2 mps 750 mmHg 64%
    08:00 +26°C° 0 mm 2 mps 750 mmHg 57%
    09:00 +29°C° 0 mm 2 mps 750 mmHg 51%
    10:00 +31°C° 0 mm 2 mps 750 mmHg 44%
    11:00 +32°C° 0 mm 2 mps 750 mmHg 40%
    12:00 +34°C° 0 mm 1 mps 749 mmHg 36%
    13:00 +35°C° 0 mm 1 mps 749 mmHg 32%
    14:00 +35°C° 0 mm 1 mps 749 mmHg 33%
    15:00 +34°C° 0 mm 1 mps 748 mmHg 33%
    16:00 +33°C° 0 mm 1 mps 748 mmHg 34%
    17:00 +32°C° 0 mm 1 mps 748 mmHg 37%
    18:00 +30°C° 0 mm 1 mps 748 mmHg 41%
    19:00 +28°C° 0 mm 1 mps 748 mmHg 45%
    20:00 +28°C° 0 mm 1 mps 748 mmHg 47%
    21:00 +27°C° 0 mm 1 mps 748 mmHg 49%
    22:00 +26°C° 0 mm 1 mps 749 mmHg 51%
    23:00 +25°C° 0 mm 1 mps 748 mmHg 53%

    Day after tomorrow, 23 August, Thursday

    Time Temperature Precipitation Wind Pressure Humidity
    00:00 +25°C° 0 mm 1 mps 748 mmHg 55%
    01:00 +24°C° 0 mm 1 mps 748 mmHg 57%
    02:00 +24°C° 0 mm 1 mps 748 mmHg 59%
    03:00 +23°C° 0 mm 1 mps 748 mmHg 60%
    04:00 +23°C° 0 mm 1 mps 748 mmHg 62%
    05:00 +24°C° 0 mm 1 mps 748 mmHg 59%
    06:00 +25°C° 0 mm 1 mps 748 mmHg 57%
    07:00 +26°C° 0 mm 1 mps 748 mmHg 54%
    08:00 +28°C° 0 mm 1 mps 748 mmHg 48%
    09:00 +31°C° 0 mm 1 mps 748 mmHg 41%
    10:00 +34°C° 0 mm 2 mps 748 mmHg 35%
    11:00 +35°C° 0 mm 2 mps 748 mmHg 33%
    12:00 +35°C° 0 mm 2 mps 747 mmHg 31%
    13:00 +35°C° 0 mm 3 mps 747 mmHg 29%
    14:00 +35°C° 0 mm 3 mps 746 mmHg 29%
    15:00 +35°C° 0 mm 3 mps 746 mmHg 30%
    16:00 +34°C° 0 mm 2 mps 746 mmHg 31%
    17:00 +32°C° 0 mm 2 mps 745 mmHg 34%
    18:00 +31°C° 0 mm 2 mps 745 mmHg 37%
    19:00 +29°C° 0 mm 1 mps 745 mmHg 40%
    20:00 +28°C° 0 mm 1 mps 746 mmHg 42%
    21:00 +27°C° 0 mm 1 mps 746 mmHg 44%
    22:00 +27°C° 0 mm 1 mps 746 mmHg 47%
    23:00 +26°C° 0 mm 1 mps 746 mmHg 49%

    24 August, Friday

    Time Temperature Precipitation Wind Pressure Humidity
    00:00 +25°C° 0 mm 1 mps 746 mmHg 52%
    01:00 +25°C° 0 mm 1 mps 746 mmHg 54%
    02:00 +24°C° 0 mm 1 mps 745 mmHg 58%
    03:00 +23°C° 0 mm 1 mps 745 mmHg 63%
    04:00 +22°C° 0 mm 1 mps 745 mmHg 67%
    05:00 +23°C° 0 mm 1 mps 745 mmHg 64%
    06:00 +24°C° 0 mm 1 mps 745 mmHg 61%
    07:00 +25°C° 0 mm 1 mps 745 mmHg 58%
    08:00 +28°C° 0 mm 1 mps 745 mmHg 51%
    09:00 +30°C° 0 mm 1 mps 745 mmHg 44%
    10:00 +33°C° 0 mm 1 mps 745 mmHg 37%
    11:00 +33°C° 0 mm 1 mps 744 mmHg 35%
    12:00 +34°C° 0 mm 1 mps 744 mmHg 32%
    13:00 +35°C° 0 mm 1 mps 743 mmHg 29%
    14:00 +34°C° 0 mm 1 mps 743 mmHg 31%
    15:00 +34°C° 0 mm 1 mps 743 mmHg 33%
    16:00 +33°C° 0 mm 1 mps 742 mmHg 34%
    17:00 +31°C° 0.4 mm 2 mps 742 mmHg 43%
    18:00 +28°C° 0.4 mm 3 mps 742 mmHg 51%
    19:00 +26°C° 0.4 mm 4 mps 743 mmHg 60%
    20:00 +25°C° 1.4 mm 5 mps 743 mmHg 68%
    21:00 +22°C° 1.4 mm 5 mps 744 mmHg 77%
    22:00 +20°C° 1.4 mm 6 mps 744 mmHg 85%
    23:00 +20°C° 0.6 mm 6 mps 744 mmHg 85%

    25 August, Saturday

    Time Temperature Precipitation Wind Pressure Humidity
    00:00 +19°C° 0.6 mm 6 mps 745 mmHg 85%
    01:00 +17°C° 0.6 mm 6 mps 745 mmHg 84%
    02:00 +17°C° 0 mm 6 mps 745 mmHg 81%
    03:00 +17°C° 0 mm 6 mps 746 mmHg 78%
    04:00 +16°C° 0 mm 6 mps 746 mmHg 75%
    05:00 +17°C° 0 mm 6 mps 746 mmHg 70%
    06:00 +17°C° 0 mm 6 mps 746 mmHg 65%
    07:00 +19°C° 0 mm 6 mps 747 mmHg 61%
    08:00 +20°C° 0 mm 6 mps 747 mmHg 56%
    09:00 +21°C° 0 mm 6 mps 747 mmHg 52%
    10:00 +21°C° 0 mm 6 mps 747 mmHg 47%
    11:00 +21°C° 0.2 mm 5 mps 747 mmHg 52%
    12:00 +20°C° 0.2 mm 4 mps 747 mmHg 57%
    13:00 +19°C° 0.2 mm 3 mps 746 mmHg 62%
    14:00 +20°C° 0 mm 3 mps 746 mmHg 56%
    15:00 +21°C° 0 mm 3 mps 746 mmHg 50%
    16:00 +21°C° 0 mm 2 mps 745 mmHg 44%
    17:00 +20°C° 0 mm 2 mps 745 mmHg 48%
    18:00 +20°C° 0 mm 1 mps 745 mmHg 52%
    19:00 +19°C° 0 mm 1 mps 745 mmHg 56%
    20:00 +18°C° 0 mm 1 mps 745 mmHg 58%
    21:00 +16°C° 0 mm 1 mps 745 mmHg 61%
    22:00 +16°C° 0 mm 1 mps 745 mmHg 63%
    23:00 +16°C° 0 mm 1 mps 745 mmHg 64%

    26 August, Sunday

    Time Temperature Precipitation Wind Pressure Humidity
    00:00 +15°C° 0 mm 1 mps 744 mmHg 64%
    01:00 +15°C° 0 mm 1 mps 744 mmHg 65%
    02:00 +15°C° 0 mm 1 mps 744 mmHg 66%
    03:00 +15°C° 0 mm 1 mps 744 mmHg 66%
    04:00 +15°C° 0 mm 1 mps 743 mmHg 66%
    05:00 +16°C° 0 mm 1 mps 743 mmHg 63%
    06:00 +18°C° 0 mm 1 mps 743 mmHg 59%
    07:00 +19°C° 0 mm 1 mps 743 mmHg 55%
    08:00 +20°C° 0 mm 1 mps 743 mmHg 52%
    09:00 +22°C° 0 mm 1 mps 743 mmHg 48%
    10:00 +24°C° 0 mm 1 mps 743 mmHg 45%
    11:00 +25°C° 0 mm 1 mps 742 mmHg 43%
    12:00 +27°C° 0 mm 1 mps 742 mmHg 42%
    13:00 +29°C° 0 mm 1 mps 742 mmHg 40%
    14:00 +27°C° 0.3 mm 2 mps 741 mmHg 49%
    15:00 +25°C° 0.3 mm 3 mps 741 mmHg 59%
    16:00 +22°C° 0.3 mm 4 mps 741 mmHg 69%
    17:00 +20°C° 1.3 mm 4 mps 742 mmHg 76%
    18:00 +18°C° 1.3 mm 4 mps 742 mmHg 83%
    19:00 +17°C° 1.3 mm 4 mps 742 mmHg 90%
    20:00 +15°C° 1.8 mm 5 mps 744 mmHg 89%
    21:00 +15°C° 1.8 mm 5 mps 745 mmHg 87%
    22:00 +14°C° 1.8 mm 5 mps 746 mmHg 85%
    23:00 +14°C° 0.3 mm 5 mps 746 mmHg 83%
    Show more